Flag for Nicaragua Weather past 2 weeks in Managua, Nicaragua

Now
81 °F

Passing clouds.


Feels Like: 84 °F
Forecast: 77 / 98 °F
Wind: 14 mph from East

Location: Managua A. C. Sandino


UV Index: 10 (Very high)

Visibility: 6 mi


Pressure: 29.86 "Hg

Humidity: 70%

Dew point: 70 °F

Location of ManaguaLocation

Historic Weather in Managua

°F

Managua temperature yesterday

Maximum temperature yesterday: 97 °F (at 3:00 PM)
Minimum temperature yesterday: 77 °F (at 5:00 AM)
Average temperature yesterday: 87 °F

Past Weeks' High & Low Weather Summary

 TemperatureHumidityPressure
High99 °F (Apr 8, 3:00 PM)88% (Apr 13, 6:00 AM)29.95 "Hg (Apr 13, 6:00 AM)
Low68 °F (Apr 13, 6:00 AM)27% (Apr 12, 3:00 PM)29.68 "Hg (Apr 15, 3:00 PM)
Average87 °F55%29.82 "Hg
* Reported Apr 5 3:00 AM — Apr 20 1:00 AM, Managua, Weather by CustomWeather, © 2014

Note: Actual official high and low records may vary slightly from our data, if they occured in-between our weather recording intervals... More about our weather records

Advertising

Historic Weather Conditions — Data for Previous 24 hours

 ConditionsComfort  
Time TempWeatherWind HumidityBarometerVisibility
1:00 AM
Apr 20
81 °FPassing clouds.14 mph70%29.86 "Hg6 mi
12:00 AM82 °FPassing clouds.12 mph66%29.86 "HgN/A
11:00 PM
Apr 19
82 °FClear.9 mph62%29.86 "Hg10 mi
10:00 PM82 °FPassing clouds.9 mph58%29.86 "HgN/A
9:00 PM84 °FPassing clouds.7 mph55%29.86 "HgN/A
8:00 PM84 °FPassing clouds.9 mph55%29.83 "HgN/A
7:00 PM88 °FPassing clouds.7 mph46%29.83 "HgN/A
6:00 PM90 °FPassing clouds.16 mph43%29.80 "HgN/A
5:00 PM91 °FScattered clouds.12 mph44%29.77 "HgN/A
4:00 PM91 °FScattered clouds.14 mph46%29.77 "HgN/A
3:00 PM97 °FScattered clouds.16 mph34%29.74 "HgN/A
2:00 PM95 °FPassing clouds.14 mph39%29.77 "HgN/A
1:00 PM93 °FPassing clouds.14 mph41%29.80 "HgN/A
12:00 PM93 °FScattered clouds.14 mph44%29.83 "HgN/A
11:00 AM91 °FPassing clouds.12 mph44%29.86 "HgN/A
10:00 AM90 °FPassing clouds.16 mph49%29.89 "HgN/A
9:00 AM88 °FScattered clouds.18 mph49%29.89 "HgN/A
8:00 AM82 °FScattered clouds.12 mph58%29.89 "HgN/A
7:00 AM79 °FScattered clouds.9 mph70%29.86 "HgN/A
6:00 AM77 °FScattered clouds.5 mph74%29.86 "HgN/A
5:00 AM77 °FPassing clouds.7 mph74%29.83 "HgN/A
Weather by CustomWeather, © 2014

See weather overview